This is the latest recevied weather packets stored in our database for station/object AD8BV. If no packets are shown the sender has not sent any weather packets the latest 10 day(s).
| Time | Temp. | Humidity | Pressure | Rain* | Wind** | Luminosity | Snow |
|---|---|---|---|---|---|---|---|
| 1777595793 | 8.33° C | 56% | 1015.9 hPa | 0 mm | - | 0 W/m² | - |
| 1777595488 | 8.33° C | 55% | 1016 hPa | 0 mm | - | 0 W/m² | - |
| 1777595185 | 8.33° C | 55% | 1016.1 hPa | 0 mm | - | 1 W/m² | - |
| 1777594881 | 8.89° C | 55% | 1015.9 hPa | 0 mm | - | 3 W/m² | - |
| 1777594577 | 8.89° C | 54% | 1015.7 hPa | 0 mm | - | 4 W/m² | - |
| 1777594274 | 8.89° C | 55% | 1015.6 hPa | 0 mm | - | 6 W/m² | - |
| 1777593970 | 8.89° C | 55% | 1015.7 hPa | 0 mm | - | 6 W/m² | - |
| 1777593666 | 8.89° C | 55% | 1015.9 hPa | 0 mm | - | 6 W/m² | - |
| 1777593362 | 8.89° C | 54% | 1015.7 hPa | 0 mm | - | 9 W/m² | - |
| 1777593061 | 8.89° C | 56% | 1015.6 hPa | 0 mm | - | 7 W/m² | - |
| 1777592761 | 8.89° C | 54% | 1015.5 hPa | 0 mm | - | 10 W/m² | - |
| 1777592456 | 8.89° C | 54% | 1015.7 hPa | 0 mm | - | 14 W/m² | - |
| 1777592152 | 8.89° C | 54% | 1015.7 hPa | 0 mm | - | 15 W/m² | - |
| 1777591849 | 8.89° C | 53% | 1015.9 hPa | 0 mm | - | 12 W/m² | - |
| 1777591545 | 8.89° C | 55% | 1016 hPa | 0 mm | - | 12 W/m² | - |
| 1777591241 | 9.44° C | 54% | 1016 hPa | 0 mm | - | 12 W/m² | - |
| 1777590937 | 9.44° C | 52% | 1015.9 hPa | 0 mm | - | 21 W/m² | - |
| 1777590632 | 9.44° C | 53% | 1015.9 hPa | 0 mm | - | 22 W/m² | - |
| 1777590329 | 9.44° C | 54% | 1016 hPa | 0 mm | - | 24 W/m² | - |
| 1777590027 | 9.44° C | 51% | 1016 hPa | 0 mm | - | 28 W/m² | - |
| 1777589722 | 9.44° C | 50% | 1016.2 hPa | 0 mm | - | 35 W/m² | - |
| 1777589421 | 10° C | 50% | 1016.1 hPa | 0 mm | - | 53 W/m² | - |
| 1777589117 | 10° C | 50% | 1016.1 hPa | 0 mm | - | 70 W/m² | - |
| 1777588813 | 10° C | 51% | 1016.1 hPa | 0 mm | - | 77 W/m² | - |
| 1777588509 | 10° C | 51% | 1016.1 hPa | 0 mm | - | 110 W/m² | - |
* Rain latest hour (hover to see other rain measurements)
** Current wind speed in m/s (hover to see current wind gust speed)